Date_and_time,latitude,longitude,wind_speed,RelWindDirFrom,WindDirFrom,air_pressure,air_temperature,relative_humidity,Temp,platform_speed_wrt_ground,air_pressure_at_mean_sea_level,platform_orientation
2019-10-14 00:00,50.6304333333333,-96.9807683333333,5.7,9.2,256,983.41,2.0,99,5.74,0.0,1010.90,270.0
2019-10-14 00:10,50.6304316666667,-96.9807666666667,6.0,9.3,261,983.49,1.9,99,5.74,0.0,1011.01,270.0
2019-10-14 00:20,50.6304316666667,-96.9807633333333,5.3,8.6,271,983.52,1.9,99,5.74,0.0,1011.04,270.0
2019-10-14 00:30,50.630435,-96.980755,5.1,8.5,264,983.56,1.8,99,5.74,0.0,1011.09,270.0
2019-10-14 00:40,50.63044,-96.980755,6.0,10.0,259,983.45,1.7,99,5.74,0.0,1010.98,270.0
2019-10-14 00:50,50.6304366666667,-96.980755,5.6,8.7,267,983.38,1.7,99,5.74,0.0,1010.90,270.0
2019-10-14 01:00,50.6304383333333,-96.980755,5.3,7.6,263,983.33,1.6,99,5.75,0.0,1010.86,360.0
2019-10-14 01:10,50.63043,-96.9807633333333,5.0,7.8,260,983.34,1.6,99,5.77,0.0,1010.87,360.0
2019-10-14 01:20,50.6304383333333,-96.9807633333333,6.1,8.5,258,983.27,1.6,99,5.80,0.0,1010.80,360.0
2019-10-14 01:30,50.6304416666667,-96.9807633333333,6.3,9.3,258,983.27,1.5,99,5.83,0.0,1010.81,360.0
2019-10-14 01:40,50.63043,-96.9807433333333,5.8,10.0,260,983.32,1.5,99,5.87,0.0,1010.86,360.0
2019-10-14 01:50,50.63044,-96.9807633333333,6.0,8.3,257,983.34,1.4,99,5.89,0.0,1010.90,360.0
2019-10-14 02:00,50.6304333333333,-96.980765,6.8,9.6,260,983.47,1.4,99,5.90,0.0,1011.04,360.0
2019-10-14 02:10,50.630435,-96.9807616666667,6.1,9.4,263,983.55,1.3,99,5.92,0.0,1011.13,360.0
2019-10-14 02:20,50.6304366666667,-96.98078,6.8,9.9,266,983.69,1.2,99,5.93,0.0,1011.28,360.0
2019-10-14 02:30,50.6304366666667,-96.9807733333333,6.6,9.9,263,983.68,1.1,99,5.94,0.0,1011.29,360.0
2019-10-14 02:40,50.630435,-96.98077,7.3,10.4,251,983.52,1.0,99,5.94,0.0,1011.13,360.0
2019-10-14 02:50,50.6304366666667,-96.9807666666667,7.5,12.7,257,983.54,1.0,99,5.91,0.0,1011.15,360.0
2019-10-14 03:00,50.6304366666667,-96.9807666666667,6.4,9.6,263,983.55,0.9,99,5.87,0.0,1011.16,38.0
2019-10-14 03:10,50.6304366666667,-96.9807666666667,6.3,10.8,263,983.64,0.8,99,5.85,0.0,1011.26,38.0
2019-10-14 03:20,50.6304366666667,-96.980765,6.2,8.6,262,983.65,0.8,99,5.86,0.0,1011.27,38.0
2019-10-14 03:30,50.630435,-96.980765,6.2,9.7,262,983.63,0.8,99,5.85,0.0,1011.26,38.0
2019-10-14 03:40,50.63043,-96.9807683333333,6.1,9.2,259,983.65,0.8,99,5.82,0.0,1011.28,38.0
2019-10-14 03:50,50.6304316666667,-96.980765,5.9,8.8,254,983.63,0.9,99,5.81,0.0,1011.26,38.0
2019-10-14 04:00,50.6304333333333,-96.9807616666667,7.2,9.8,252,983.58,0.9,99,5.81,0.0,1011.21,360.0
2019-10-14 04:10,50.6304366666667,-96.9807683333333,7.5,10.1,250,983.54,0.8,99,5.80,0.0,1011.18,360.0
2019-10-14 04:20,50.6304333333333,-96.9807616666667,7.1,10.3,252,983.57,0.8,99,5.81,0.0,1011.22,360.0
2019-10-14 04:30,50.6304516666667,-96.9807566666667,7.2,10.4,254,983.58,0.8,99,5.85,0.0,1011.24,360.0
2019-10-14 04:40,50.6304416666667,-96.98077,7.1,10.5,253,983.61,0.7,99,5.88,0.0,1011.27,360.0
2019-10-14 04:50,50.6304383333333,-96.98076,6.0,9.4,256,983.64,0.7,100,5.89,0.0,1011.30,360.0
2019-10-14 05:00,50.63046,-96.980745,5.9,7.7,256,983.68,0.7,100,5.92,0.0,1011.34,27.2
2019-10-14 05:10,50.6304416666667,-96.9807883333333,6.0,8.9,260,983.76,0.8,100,5.92,0.0,1011.42,27.2
2019-10-14 05:20,50.6304383333333,-96.9807666666667,6.4,9.6,252,983.76,0.7,100,5.92,0.0,1011.43,27.2
2019-10-14 05:30,50.6304383333333,-96.9808233333333,6.5,10.3,250,983.69,0.7,100,5.92,0.0,1011.36,27.2
2019-10-14 05:40,50.63044,-96.98076,7.4,10.4,252,983.54,0.7,99,5.91,0.0,1011.20,27.2
2019-10-14 05:50,50.6304366666667,-96.9807633333333,6.6,9.0,245,983.45,0.7,99,5.88,0.0,1011.11,27.2
2019-10-14 06:00,50.63044,-96.9807616666667,7.2,10.1,240,983.40,0.6,99,5.87,0.0,1011.06,12.6
2019-10-14 06:10,50.6304316666667,-96.9808366666667,6.7,9.5,244,983.47,0.5,100,5.87,0.0,1011.14,12.6
2019-10-14 06:20,50.6304433333333,-96.98076,6.5,9.4,248,983.63,0.5,100,5.89,0.0,1011.31,12.6
2019-10-14 06:30,50.630425,-96.9807583333333,7.1,10.6,252,983.68,0.5,99,5.92,0.0,1011.36,12.6
2019-10-14 06:40,50.6304316666667,-96.9807616666667,6.3,9.0,246,983.67,0.4,99,5.94,0.0,1011.36,12.6
2019-10-14 06:50,50.6304316666667,-96.9807566666667,7.2,11.4,246,983.57,0.3,99,5.94,0.0,1011.26,12.6
2019-10-14 07:00,50.6304333333333,-96.9807616666667,7.6,10.4,250,983.50,0.1,99,5.95,0.0,1011.20,0.0
2019-10-14 07:10,50.6304333333333,-96.98076,6.6,11.2,252,983.60,-0.0,99,5.97,0.0,1011.31,0.0
2019-10-14 07:20,50.6304333333333,-96.98076,5.4,8.0,250,983.68,-0.2,100,5.99,0.0,1011.40,0.0
2019-10-14 07:30,50.6304333333333,-96.9807583333333,6.2,8.4,243,983.63,-0.3,100,6.01,0.0,1011.36,0.0
2019-10-14 07:40,50.6304383333333,-96.9807633333333,6.6,9.1,239,983.59,-0.5,100,6.02,0.0,1011.32,0.0
2019-10-14 07:50,50.6304383333333,-96.9807583333333,6.4,9.6,244,983.67,-0.5,100,6.02,0.0,1011.41,0.0
2019-10-14 08:00,50.6304216666667,-96.9807633333333,8.0,11.0,238,983.73,-0.8,100,6.02,0.0,1011.49,198.5
2019-10-14 08:10,50.6304083333333,-96.9807466666667,8.6,11.7,228,983.57,-0.8,100,6.02,0.0,1011.33,198.5
2019-10-14 08:20,50.6304383333333,-96.98075,6.5,9.6,238,983.72,-0.8,100,6.05,0.0,1011.48,198.5
2019-10-14 08:30,50.6304333333333,-96.9807533333333,6.7,10.3,240,983.79,-0.8,100,6.05,0.0,1011.56,198.5
2019-10-14 08:40,50.63043,-96.9807533333333,6.2,9.2,247,983.82,-0.6,100,6.04,0.0,1011.58,198.5
2019-10-14 08:50,50.630445,-96.98078,5.6,8.6,257,983.87,-0.4,100,6.04,0.0,1011.64,198.5
2019-10-14 09:00,50.6304283333333,-96.9807533333333,5.8,8.3,249,984.00,-0.4,100,6.05,0.0,1011.77,360.0
2019-10-14 09:10,50.6304333333333,-96.9807466666667,6.4,9.3,243,983.99,-0.3,100,6.05,0.0,1011.77,360.0
2019-10-14 09:20,50.6304366666667,-96.9807466666667,6.8,10.9,248,983.94,-0.3,100,6.04,0.0,1011.72,360.0
2019-10-14 09:30,50.6304366666667,-96.9807466666667,5.9,9.0,246,984.03,-0.2,100,6.03,0.0,1011.82,360.0
2019-10-14 09:40,50.6304383333333,-96.9807483333333,6.8,10.1,249,984.11,-0.2,100,6.02,0.0,1011.91,360.0
2019-10-14 09:50,50.6304366666667,-96.9807483333333,6.2,9.7,248,984.18,-0.1,100,6.01,0.0,1011.98,360.0
2019-10-14 10:00,50.6304366666667,-96.9807666666667,6.6,10.1,242,984.21,-0.1,100,6.01,0.0,1012.02,311.7
2019-10-14 10:10,50.6304383333333,-96.9807616666667,6.4,9.2,239,984.17,-0.2,100,6.00,0.0,1011.98,311.7
2019-10-14 10:20,50.6304133333333,-96.9807616666667,5.5,8.7,245,984.18,-0.1,100,6.00,0.0,1011.99,311.7
2019-10-14 10:30,50.630425,-96.9807566666667,5.4,8.3,239,984.16,-0.1,100,5.98,0.0,1011.95,311.7
2019-10-14 10:40,50.6304233333333,-96.9807466666667,5.9,8.3,234,984.09,-0.0,100,5.96,0.0,1011.87,311.7
2019-10-14 10:50,50.63045,-96.9807716666667,6.5,9.0,232,984.07,0.0,100,5.97,0.0,1011.85,311.7
2019-10-14 11:00,50.6304366666667,-96.98077,6.5,9.0,234,984.05,0.2,100,5.97,0.0,1011.81,18.9
2019-10-14 11:10,50.6304333333333,-96.9807633333333,6.7,10.5,240,983.99,0.3,100,5.97,0.0,1011.74,18.9
2019-10-14 11:20,50.6304333333333,-96.9807616666667,7.0,9.9,242,983.92,0.4,100,5.96,0.0,1011.66,18.9
2019-10-14 11:30,50.6304333333333,-96.9807616666667,6.6,10.1,247,983.89,0.4,100,5.93,0.0,1011.63,18.9
2019-10-14 11:40,50.6304316666667,-96.98076,6.6,10.0,248,983.90,0.5,100,5.91,0.0,1011.63,18.9
2019-10-14 11:50,50.6304283333333,-96.9807666666667,6.0,8.1,249,983.89,0.5,100,5.90,0.0,1011.62,18.9
2019-10-14 12:00,50.6304216666667,-96.98076,5.1,8.2,253,983.93,0.6,100,5.88,0.0,1011.66,228.3
2019-10-14 12:10,50.6304483333333,-96.9807583333333,4.2,6.5,240,984.01,0.6,100,5.88,0.0,1011.75,228.3
2019-10-14 12:20,50.6304266666667,-96.9807533333333,3.7,5.6,235,984.10,0.6,100,5.89,0.0,1011.83,228.3
2019-10-14 12:30,50.6304266666667,-96.9807533333333,3.8,5.4,236,984.14,0.6,100,5.92,0.0,1011.87,228.3
2019-10-14 12:40,50.6304333333333,-96.98076,4.5,6.4,230,984.25,0.6,100,5.94,0.0,1011.97,228.3
2019-10-14 12:50,50.6304333333333,-96.9807533333333,3.6,5.7,237,984.30,0.7,100,5.95,0.0,1012.02,228.3
2019-10-14 13:00,50.63044,-96.9807716666667,3.1,4.7,231,984.38,0.7,100,5.95,0.0,1012.09,347.4
2019-10-14 13:10,50.63044,-96.9807683333333,2.7,4.3,232,984.45,0.7,100,5.95,0.0,1012.16,347.4
2019-10-14 13:20,50.6304383333333,-96.9807716666667,3.9,6.0,225,984.44,0.8,100,5.94,0.0,1012.15,347.4
2019-10-14 13:30,50.63044,-96.98077,3.9,5.6,228,984.50,0.8,100,5.93,0.0,1012.21,347.4
2019-10-14 13:40,50.63044,-96.9807666666667,3.1,4.3,234,984.62,0.7,100,5.92,0.0,1012.33,347.4
2019-10-14 13:50,50.63043,-96.98077,2.8,4.5,227,984.67,0.8,100,5.92,0.0,1012.37,347.4
2019-10-14 14:00,50.6304216666667,-96.98076,3.9,5.6,229,984.66,0.9,100,5.92,0.0,1012.36,156.5
2019-10-14 14:10,50.6304383333333,-96.9807716666667,4.3,5.6,227,984.61,0.9,100,5.91,0.0,1012.30,156.5
2019-10-14 14:20,50.6304566666667,-96.980765,4.6,6.2,229,984.65,1.0,100,5.90,0.0,1012.34,156.5
2019-10-14 14:30,50.6304266666667,-96.9807433333333,4.9,7.3,230,984.64,1.1,100,5.92,0.0,1012.33,156.5
2019-10-14 14:40,50.63043,-96.9807433333333,5.1,7.0,229,984.68,1.1,100,5.94,0.0,1012.36,156.5
2019-10-14 14:50,50.6304483333333,-96.9807633333333,4.9,6.7,227,984.60,1.3,100,5.96,0.0,1012.27,156.5
2019-10-14 15:00,50.6304433333333,-96.98076,4.3,6.0,229,984.64,1.4,100,5.97,0.0,1012.30,25.7
2019-10-14 15:10,50.6304433333333,-96.9807616666667,5.2,6.9,220,984.65,1.5,99,5.96,0.0,1012.31,25.7
2019-10-14 15:20,50.630425,-96.9807733333333,5.4,7.5,229,984.67,1.6,99,5.98,0.0,1012.32,25.7
2019-10-14 15:30,50.63042,-96.98076,5.0,7.2,222,984.75,1.7,99,6.00,0.0,1012.40,25.7
2019-10-14 15:40,50.6303966666667,-96.9807966666667,4.6,7.0,223,984.77,1.9,99,6.02,0.0,1012.41,25.7
2019-10-14 15:50,50.630425,-96.9807633333333,4.4,5.8,215,984.82,2.1,99,6.03,0.0,1012.44,25.7
2019-10-14 16:00,50.6304266666667,-96.9807566666667,4.7,6.7,220,984.91,2.1,99,6.02,0.0,1012.53,176.8
2019-10-14 16:10,50.630425,-96.9807583333333,3.9,6.1,219,984.97,2.3,99,5.99,0.0,1012.58,176.8
2019-10-14 16:20,50.6304266666667,-96.9807616666667,4.1,5.6,211,984.95,2.4,97,5.96,0.0,1012.55,176.8
2019-10-14 16:30,50.6304283333333,-96.98076,4.0,5.6,207,984.90,2.5,96,5.94,0.0,1012.50,176.8
2019-10-14 16:40,50.63043,-96.98076,3.8,6.2,225,984.97,2.8,94,5.93,0.0,1012.54,176.8
2019-10-14 16:50,50.63043,-96.98076,4.1,6.4,247,984.97,2.8,92,5.93,0.0,1012.53,176.8
2019-10-14 17:00,50.63043,-96.9807616666667,3.1,5.1,236,984.93,2.9,91,5.94,0.0,1012.48,38.0
2019-10-14 17:10,50.63043,-96.98076,3.0,4.5,236,984.90,3.1,89,5.97,0.0,1012.44,38.0
2019-10-14 17:20,50.6304266666667,-96.9807633333333,3.1,5.4,220,984.96,3.3,85,6.01,0.0,1012.48,38.0
2019-10-14 17:30,50.6304416666667,-96.9807633333333,3.3,5.0,207,984.99,3.4,85,6.03,0.0,1012.50,38.0
2019-10-14 17:40,50.6304383333333,-96.9807566666667,2.8,4.8,217,984.97,3.6,83,6.04,0.0,1012.46,38.0
2019-10-14 17:50,50.630435,-96.980755,2.6,5.1,205,985.02,3.7,83,6.04,0.0,1012.51,38.0
2019-10-14 18:00,50.6304316666667,-96.9807583333333,3.5,5.1,209,985.04,3.8,82,6.03,0.0,1012.51,142.0
2019-10-14 18:10,50.63043,-96.9807583333333,2.5,4.2,201,985.03,3.9,81,6.04,0.0,1012.49,142.0
2019-10-14 18:20,50.6304283333333,-96.98076,3.5,5.2,206,985.05,4.0,81,6.07,0.0,1012.50,142.0
2019-10-14 18:30,50.6304283333333,-96.9807616666667,1.6,3.9,222,984.98,4.4,77,6.12,0.0,1012.40,142.0
2019-10-14 18:40,50.630425,-96.9807666666667,1.7,3.4,194,985.02,4.6,77,6.15,0.0,1012.42,142.0
2019-10-14 18:50,50.6304266666667,-96.9807633333333,2.5,4.1,210,985.02,4.5,78,6.16,0.0,1012.42,142.0
2019-10-14 19:00,50.630405,-96.9807416666667,2.8,4.3,200,985.01,4.4,78,6.18,0.0,1012.41,165.5
2019-10-14 19:10,50.630415,-96.9807583333333,2.9,5.0,222,985.00,4.5,77,6.21,0.0,1012.38,165.5
2019-10-14 19:20,50.6304266666667,-96.98077,2.4,4.5,206,984.99,4.5,76,6.35,0.0,1012.37,165.5
2019-10-14 19:30,50.63044,-96.9807716666667,3.0,4.5,208,985.01,4.5,76,6.47,0.0,1012.38,165.5
2019-10-14 19:40,50.6304333333333,-96.9807616666667,2.2,3.9,204,984.94,4.8,74,6.50,0.0,1012.29,165.5
2019-10-14 19:50,50.6304366666667,-96.9807633333333,1.5,3.0,202,984.89,5.1,73,6.48,0.0,1012.22,165.5
2019-10-14 20:00,50.6304333333333,-96.9807633333333,1.4,4.4,181,984.78,5.6,73,6.46,0.0,1012.07,347.4
2019-10-14 20:10,50.6304316666667,-96.9807633333333,2.4,4.7,143,984.74,5.2,77,6.45,0.0,1012.05,347.4
2019-10-14 20:20,50.6304316666667,-96.9807666666667,2.6,5.3,202,984.77,5.4,72,6.45,0.0,1012.05,347.4
2019-10-14 20:30,50.6304266666667,-96.9807633333333,4.0,6.3,209,984.80,5.2,72,6.43,0.0,1012.08,347.4
2019-10-14 20:40,50.6304283333333,-96.980765,5.0,7.6,194,984.83,4.9,72,6.40,0.0,1012.13,347.4
2019-10-14 20:50,50.6304283333333,-96.9807633333333,3.5,5.0,219,984.83,5.0,71,6.39,0.0,1012.14,347.4
2019-10-14 21:00,50.6304283333333,-96.9807633333333,3.6,5.0,205,984.89,4.9,70,6.38,0.0,1012.20,192.6
2019-10-14 21:10,50.6304266666667,-96.980765,3.7,5.3,209,984.92,4.8,72,6.36,0.0,1012.23,192.6
2019-10-14 21:20,50.630425,-96.980765,4.4,6.4,189,984.95,4.6,75,6.33,0.0,1012.27,192.6
2019-10-14 21:30,50.6304183333333,-96.9807816666667,6.0,7.4,186,984.98,4.4,80,6.39,0.0,1012.29,192.6
2019-10-14 21:40,50.6304166666667,-96.980775,5.2,6.9,185,984.94,4.2,82,6.41,0.0,1012.25,192.6
2019-10-14 21:50,50.6304166666667,-96.9807716666667,5.1,6.8,197,984.98,4.1,83,6.44,0.0,1012.27,192.6
2019-10-14 22:00,50.6304216666667,-96.9807716666667,4.9,6.9,197,984.95,4.0,84,6.52,0.0,1012.26,317.0
2019-10-14 22:10,50.6304466666667,-96.98076,5.3,6.4,189,984.91,3.8,85,6.56,0.0,1012.22,317.0
2019-10-14 22:20,50.6304366666667,-96.98076,5.3,6.8,200,984.91,3.8,84,6.58,0.0,1012.24,317.0
2019-10-14 22:30,50.6304316666667,-96.98076,4.6,6.1,203,984.88,3.8,84,6.59,0.0,1012.22,317.0
2019-10-14 22:40,50.63039,-96.9807783333333,4.2,5.1,204,984.91,3.7,84,6.56,0.0,1012.25,317.0
2019-10-14 22:50,50.630425,-96.9807616666667,3.8,5.0,220,984.91,3.8,84,6.54,0.0,1012.26,317.0
2019-10-14 23:00,50.63042,-96.980765,3.6,4.7,223,984.94,3.7,84,6.53,0.0,1012.29,360.0
2019-10-14 23:10,50.63042,-96.9807616666667,3.1,4.4,217,985.03,3.7,84,6.51,0.0,1012.39,360.0
2019-10-14 23:20,50.6304183333333,-96.9807616666667,2.6,3.8,217,985.04,3.7,83,6.49,0.0,1012.41,360.0
2019-10-14 23:30,50.6304166666667,-96.98076,2.7,3.3,220,985.13,3.7,83,6.49,0.0,1012.51,360.0
2019-10-14 23:40,50.63042,-96.9807616666667,2.7,4.7,212,985.15,3.7,83,6.49,0.0,1012.54,360.0
